Regional Weather Roundup
Issued by NWS

Home | Current Version | Previous Version | Text Only | Print | Product List | Glossary On
Versions: 1 2 3 4 5 6 7 8 9 10 11 12 13 14 15 16 17 18 19 20 21 22 23 24 25 26 27 28 29 30 31 32 33 34 35 36 37 38 39 40 41 42 43 44 45 46 47 48 49 50
000
ASUS45 KPSR 012010
RWRAZ

ARIZONA REGIONAL HOURLY WEATHER ROUNDUP
NATIONAL WEATHER SERVICE PHOENIX AZ
100 PM MST SUN MAR 01 2015

NOTE: FAIR INDICATES FEW OR NO CLOUDS BELOW 12,000 FEET WITH NO
SIGNIFICANT WEATHER AND/OR OBSTRUCTIONS TO VISIBILITY.

AZZ001>003-036-012100-
NORTHWEST ARIZONA

CITY           SKY/WX    TMP DP  RH WIND       PRES   REMARKS
BULLHEAD CITY  CLOUDY    61  41  48 SW10      29.98S
KINGMAN        LGT RAIN  51  37  58 W3        29.97F
$$

AZZ004>008-015-016-018-012100-
NORTH CENTRAL ARIZONA

CITY           SKY/WX    TMP DP  RH WIND       PRES   REMARKS
GRAND CANYON   SNOW      33  32  96 SE3       30.04S VSB 1/4
PRESCOTT       CLOUDY    40  36  86 N5        30.01F
FLAGSTAFF      LGT SNOW  33  31  92 E5        30.04S FOG     WCI  29
PAYSON         CLOUDY    46  46 100 VRB5      30.06F
PAGE           LGT RAIN  39  35  86 CALM      30.06F FOG
$$

AZZ009>014-017-012100-
NORTHEAST ARIZONA

CITY           SKY/WX    TMP DP  RH WIND       PRES   REMARKS
WINSLOW        LGT RAIN  43  39  86 NW10      30.06F
SAINT JOHNS    PTSUNNY   62  32  32 SW20G29   30.00F
WINDOW ROCK    PTSUNNY   48  41  76 SW15G23   30.06S
SHOW LOW       MOSUNNY   50  34  53 S22G37    30.06F
$$

AZZ023-012100-
GREATER PHOENIX AREA

CITY           SKY/WX    TMP DP  RH WIND       PRES   REMARKS
PHOENIX        PTSUNNY   72  48  42 S10G23    29.93F
BUCKEYE        PTSUNNY   66  48  52 E7        29.94F
GLENDALE       PTSUNNY   70  48  46 CALM      29.95F
LUKE AFB       PTSUNNY   70  50  49 VRB3      29.93F
DEER VALLEY    PTSUNNY   66  47  50 S8G22     29.95F
SCOTTSDALE     CLOUDY    67  48  50 S6        29.97F
MESA-FALCON    PTSUNNY   68  45  42 S12       29.95F
MESA-GATEWAY   MOSUNNY   70  48  46 SE16      29.97F
CHANDLER       PTSUNNY   73  48  40 S17G23    29.95F
$$

AZZ027-028-012100-
SOUTHWEST MARICOPA COUNTY AND PINAL COUNTY

CITY           SKY/WX    TMP DP  RH WIND       PRES   REMARKS
CASA GRANDE    FAIR      72  45  37 S12G21    29.95F
$$

AZZ503-504-507>509-012100-
SOUTHEAST ARIZONA

CITY           SKY/WX    TMP DP  RH WIND       PRES   REMARKS
TUCSON         SUNNY     74  38  27 SW16G23   29.99F
DAVIS-MONTHAN  SUNNY     73  38  27 SW12G18   29.97F
RYAN FIELD       N/A     73  43  33 S17G29    29.98F
NOGALES        SUNNY     69  36  29 S16G28    30.03F
SIERRA VISTA   MOSUNNY   67  29  24 S12G21    30.05F
DOUGLAS        MOSUNNY   69  26  20 SW18G29   30.05F
SAFFORD        SUNNY     73  25  16 S21G26    29.97F
$$

AZZ020-021-025-026-031-012100-
SOUTHWEST ARIZONA

CITY           SKY/WX    TMP DP  RH WIND       PRES   REMARKS
YUMA           CLOUDY    63  46  54 N10       29.93F
$$

CAZ031-033-041-043-047-048-061-012100-
SOUTHERN CALIFORNIA

CITY           SKY/WX    TMP DP  RH WIND       PRES   REMARKS
DOWNTOWN L.A.  CLOUDY    62  44  51 SE8       29.92F
L.A. AIRPORT   PTSUNNY   62  46  55 SE12      29.92F
SAN DIEGO      LGT RAIN  56  48  74 E14G21    29.96R
BURBANK        MOSUNNY   61  42  49 E8        29.92F
ONTARIO        PTSUNNY   56  45  66 E7        29.93F
RIVERSIDE      LGT RAIN  54  46  74 E13       29.93F
PALM SPRINGS   LGT RAIN  54  46  74 S3        30.02S
EL CENTRO NAS  LGT RAIN  56  51  84 NW9       29.97F
IMPERIAL       LGT RAIN  55  52  89 NW7       29.97F
BLYTHE         LGT RAIN  56  50  80 NW6       29.98F
NEEDLES        RAIN      59  44  57 W8        29.97F
$$

NVZ020-UTZ003-012100-
SOUTHERN NEVADA-UTAH

CITY           SKY/WX    TMP DP  RH WIND       PRES   REMARKS
LAS VEGAS      CLOUDY    55  33  43 SE5       29.94F
SALT LAKE CITY PTSUNNY   44  29  55 VRB6      30.08F
$$

NMZ009-TXZ055-012100-
NEW MEXICO-WEST TEXAS

CITY           SKY/WX    TMP DP  RH WIND       PRES   REMARKS
ALBUQUERQUE    MOSUNNY   51  38  60 W3        30.09F
EL PASO        CLOUDY    70  26  19 S10G17    30.07F
$$


........................KEY........................
SKY/WX - SKY CONDITION/WEATHER
TMP    - TEMPERATURE IN FAHRENHEIT
DP     - DEW POINT IN FAHRENHEIT
RH     - RELATIVE HUMIDITY IN PERCENT
WIND   - DIRECTION AND SPEED IN MILES PER HOUR (MPH)
VRB    - VARIABLE WIND DIRECTION
PRES   - MEAN SEA LEVEL PRESSURE IN INCHES OF MERCURY
         F - FALLING PRESSURE   R - RISING PRESSURE
         S - STEADY PRESSURE
VSB    - VISIBILITY IN MILES
HX     - HEAT INDEX IN FAHRENHEIT
WCI    - WIND CHILL INDEX IN FAHRENHEIT
TC     - TEMPERATURE IN CELSIUS WHICH IS ALSO KNOWN AS
         TEMPERATURE IN CENTIGRADE
AFB    - AIR FORCE BASE
         LUKE AFB IS LUKE AIR FORCE BASE
         DAVIS-MONTHAN IS DAVIS-MONTHAN AIR FORCE BASE
NAS    - NAVAL AIR STATION
         EL CENTRO NAS IS EL CENTRO NAVAL AIR STATION
N/A    - NOT AVAILABLE



USA.gov is the U.S. government's official web portal to all federal, state and local government web resources and services.